Weather History for KWWD - January, 2014

Change the Weather History Date:

Friday, January 10, 2014

  Actual Average (KGED) Record (KGED)
Temperature  
Mean Temperature 36 °F 35 °F  
Max Temperature 50 °F 43 °F 67 °F (1950)
Min Temperature 24 °F 27 °F -5 °F (1958)
Degree Days  
Heating Degree Days 29 30  
Month to date heating degree days 297  
Since 1 July heating degree days 1879  
Cooling Degree Days 0 0  
Month to date cooling degree days 0  
Year to date cooling degree days 0  
Moisture  
Dew Point 36 °F    
Average Humidity 90    
Maximum Humidity 94    
Minimum Humidity 80    
Precipitation  
Precipitation 0.46 in 0.10 in 1.30 in (1977)
Month to date precipitation 0.95  
Year to date precipitation 0.95  
Sea Level Pressure  
Sea Level Pressure 30.39 in    
Wind  
Wind Speed 3 mph (East)    
Max Wind Speed 13 mph    
Max Gust Speed 18 mph    
Visibility 6 miles    
Events      
T = Trace of Precipitation, MM = Missing Value Source: NWS Daily Summary

Daily Weather History Graph

Daily Weather History Graph

Search for Another Location

Airport or City:

Trip Planner

Search our weather history database for the weather conditions in past years. The results will help you decide how hot, cold, wet, or windy it might be!

Date:

Astronomy

Jan. 10, 2014 Rise Set
Actual Time 7:18 AM EST 4:56 PM EST
Civil Twilight 6:48 AM EST 5:25 PM EST
Nautical Twilight 6:15 AM EST 5:58 PM EST
Astronomical Twilight 5:43 AM EST 6:31 PM EST
Moon 12:58 PM EST (1/10) 2:24 AM EST (1/10)
Length of Visible Light 10h 36m
Length of Day
9h 37m
Waxing Gibbous, 75% of the Moon is Illuminated
Jan 10
Waxing Gibbous
Jan 15
Full
Jan 24
Last Quarter
Jan 30
New
Feb 6
First Quarter

Hourly Weather History & Observations

Time (EST) Temp. Windchill Dew Point Humidity Pressure Visibility Wind Dir Wind Speed Gust Speed Precip Events Conditions
12:15 AM 24.8 °F - 19.4 °F 80% 30.55 in 10.0 mi Calm Calm - N/A   Clear
12:35 AM 24.8 °F - 21.2 °F 86% 30.54 in 10.0 mi Calm Calm - N/A   Clear
12:55 AM 24.8 °F - 21.2 °F 86% 30.54 in 10.0 mi Calm Calm - N/A   Clear
1:15 AM 26.6 °F - 21.2 °F 80% 30.52 in 10.0 mi Calm Calm - N/A   Clear
1:35 AM 26.6 °F 22.6 °F 21.2 °F 80% 30.52 in 10.0 mi NE 3.5 mph - N/A   Clear
1:55 AM 26.6 °F - 24.8 °F 93% 30.52 in 10.0 mi Calm Calm - N/A   Scattered Clouds
2:15 AM 26.6 °F - 23.0 °F 86% 30.51 in 10.0 mi Calm Calm - N/A   Scattered Clouds
2:35 AM 28.4 °F - 24.8 °F 86% 30.51 in 10.0 mi Calm Calm - N/A   Mostly Cloudy
2:55 AM 28.4 °F - 26.6 °F 93% 30.51 in 10.0 mi Calm Calm - N/A   Overcast
3:15 AM 30.2 °F - 26.6 °F 86% 30.51 in 10.0 mi Calm Calm - N/A   Overcast
3:35 AM 30.2 °F - 28.4 °F 93% 30.49 in 10.0 mi Calm Calm - N/A   Overcast
3:55 AM 32.0 °F - 28.4 °F 87% 30.48 in 10.0 mi Calm Calm - N/A   Mostly Cloudy
4:15 AM 32.0 °F 28.7 °F 28.4 °F 87% 30.46 in 10.0 mi ENE 3.5 mph - N/A   Scattered Clouds
4:35 AM 33.8 °F - 30.2 °F 87% 30.46 in 10.0 mi Calm Calm - N/A   Mostly Cloudy
4:55 AM 33.8 °F - 28.4 °F 81% 30.46 in 10.0 mi Calm Calm - N/A   Overcast
5:15 AM 33.8 °F 30.8 °F 30.2 °F 87% 30.45 in 10.0 mi NNE 3.5 mph - N/A   Overcast
5:35 AM 35.6 °F 32.8 °F 30.2 °F 81% 30.46 in 10.0 mi NNE 3.5 mph - N/A   Overcast
5:55 AM 35.6 °F 32.8 °F 32.0 °F 87% 30.45 in 10.0 mi NE 3.5 mph - N/A   Overcast
6:15 AM 35.6 °F 32.8 °F 32.0 °F 87% 30.45 in 10.0 mi NNE 3.5 mph - N/A   Overcast
6:35 AM 35.6 °F 32.8 °F 32.0 °F 87% 30.45 in 10.0 mi NNE 3.5 mph - N/A   Overcast
6:55 AM 35.6 °F 31.7 °F 32.0 °F 87% 30.45 in 10.0 mi NNE 4.6 mph - N/A   Overcast
7:15 AM 35.6 °F 30.7 °F 33.8 °F 93% 30.45 in 10.0 mi NNE 5.8 mph - N/A   Overcast
7:35 AM 35.6 °F 32.8 °F 33.8 °F 93% 30.45 in 9.0 mi NNE 3.5 mph - N/A   Overcast
7:55 AM 35.6 °F 30.7 °F 33.8 °F 93% 30.45 in 8.0 mi NNE 5.8 mph - N/A   Overcast
8:15 AM 35.6 °F 30.7 °F 33.8 °F 93% 30.46 in 7.0 mi North 5.8 mph - 0.01 in   Overcast
8:35 AM 35.6 °F 30.7 °F 32.0 °F 87% 30.46 in 7.0 mi North 5.8 mph - 0.01 in   Overcast
8:55 AM 35.6 °F 31.7 °F 32.0 °F 87% 30.46 in 5.0 mi NE 4.6 mph - 0.02 in   Overcast
9:15 AM 35.6 °F 30.7 °F 33.8 °F 93% 30.46 in 5.0 mi NNE 5.8 mph - 0.01 in   Overcast
9:35 AM 35.6 °F 30.7 °F 33.8 °F 93% 30.46 in 5.0 mi NNE 5.8 mph - 0.02 in   Overcast
9:55 AM 37.4 °F 34.9 °F 33.8 °F 87% 30.46 in 5.0 mi North 3.5 mph - 0.02 in   Overcast
10:15 AM 37.4 °F 32.8 °F 33.8 °F 87% 30.47 in 4.0 mi North 5.8 mph - 0.02 in   Overcast
10:35 AM 37.4 °F 34.9 °F 33.8 °F 87% 30.47 in 3.0 mi NNW 3.5 mph - 0.03 in   Overcast
10:55 AM 37.4 °F 33.8 °F 35.6 °F 93% 30.46 in 2.5 mi NNE 4.6 mph - 0.05 in   Overcast
11:15 AM 39.2 °F - 35.6 °F 87% 30.45 in 2.0 mi Calm Calm - 0.02 in   Overcast
11:35 AM 39.2 °F - 37.4 °F 93% 30.43 in 2.5 mi Calm Calm - 0.06 in   Overcast
11:55 AM 41.0 °F - 37.4 °F 87% 30.42 in 2.5 mi Calm Calm - 0.09 in   Overcast
12:15 PM 41.0 °F 38.0 °F 39.2 °F 93% 30.40 in 2.5 mi East 4.6 mph - 0.01 in   Mostly Cloudy
12:35 PM 41.0 °F 38.0 °F 37.4 °F 87% 30.39 in 2.0 mi East 4.6 mph - 0.04 in   Overcast
12:55 PM 39.2 °F 37.0 °F 37.4 °F 93% 30.38 in 2.0 mi ENE 3.5 mph - 0.06 in   Overcast
1:15 PM 41.0 °F 39.0 °F 37.4 °F 87% 30.37 in 2.0 mi ENE 3.5 mph - 0.04 in   Overcast
1:35 PM 41.0 °F 38.0 °F 39.2 °F 93% 30.36 in 1.8 mi East 4.6 mph - 0.07 in   Overcast
1:55 PM 41.0 °F 37.1 °F 39.2 °F 93% 30.35 in 2.0 mi ESE 5.8 mph - 0.09 in   Overcast
2:15 PM 41.0 °F - 39.2 °F 93% 30.35 in 1.8 mi Calm Calm - N/A   Overcast
2:35 PM 41.0 °F 39.0 °F 39.2 °F 93% 30.35 in 1.8 mi East 3.5 mph - 0.01 in   Overcast
2:55 PM 42.8 °F 41.1 °F 39.2 °F 87% 30.35 in 2.0 mi East 3.5 mph - 0.02 in   Overcast
3:15 PM 42.8 °F 40.1 °F 39.2 °F 87% 30.34 in 2.0 mi East 4.6 mph - N/A   Overcast
3:35 PM 42.8 °F 40.1 °F 39.2 °F 87% 30.34 in 2.0 mi East 4.6 mph - 0.02 in   Overcast
3:55 PM 42.8 °F - 39.2 °F 87% 30.34 in 1.8 mi Calm Calm - 0.04 in   Overcast
4:15 PM 42.8 °F 41.1 °F 39.2 °F 87% 30.33 in 1.2 mi East 3.5 mph - 0.02 in   Overcast
4:35 PM 42.8 °F 40.1 °F 39.2 °F 87% 30.32 in 1.2 mi ESE 4.6 mph - 0.03 in   Overcast
4:55 PM 42.8 °F - 41.0 °F 93% 30.32 in 1.0 mi Calm Calm - 0.03 in   Overcast
5:15 PM 42.8 °F - 39.2 °F 87% 30.31 in 0.5 mi Calm Calm - 0.01 in   Overcast
5:35 PM 44.6 °F 42.2 °F 42.8 °F 93% 30.30 in 0.5 mi ESE 4.6 mph - 0.01 in   Overcast
5:55 PM 44.6 °F 40.7 °F 42.8 °F 93% 30.30 in 1.0 mi ESE 6.9 mph - 0.01 in   Overcast
6:15 PM 46.4 °F 42.9 °F 44.6 °F 93% 30.30 in 3.0 mi ESE 6.9 mph - N/A   Overcast
6:35 PM 44.6 °F 41.4 °F 42.8 °F 93% 30.30 in 4.0 mi SE 5.8 mph - N/A   Overcast
6:55 PM 44.6 °F 41.4 °F 42.8 °F 93% 30.31 in 4.0 mi SE 5.8 mph - N/A   Overcast
7:15 PM 46.4 °F 42.9 °F 44.6 °F 93% 30.31 in 4.0 mi SE 6.9 mph - 0.01 in   Overcast
7:35 PM 46.4 °F 42.9 °F 44.6 °F 93% 30.30 in 4.0 mi SE 6.9 mph - 0.01 in   Overcast
7:55 PM 46.4 °F 42.4 °F 44.6 °F 93% 30.29 in 4.0 mi SE 8.1 mph - 0.01 in   Overcast
8:15 PM 46.4 °F 42.4 °F 44.6 °F 93% 30.28 in 5.0 mi SE 8.1 mph - N/A   Overcast
8:35 PM 46.4 °F 42.4 °F 44.6 °F 93% 30.28 in 5.0 mi SSE 8.1 mph - N/A   Overcast
8:55 PM 46.4 °F 42.4 °F 44.6 °F 93% 30.27 in 5.0 mi SSE 8.1 mph - N/A   Overcast
9:15 PM 46.4 °F 42.9 °F 44.6 °F 93% 30.26 in 5.0 mi SSE 6.9 mph - N/A   Overcast
9:35 PM 48.2 °F - 44.6 °F 87% 30.25 in 4.0 mi South 9.2 mph - N/A   Overcast
9:55 PM 48.2 °F - 46.4 °F 93% 30.25 in 5.0 mi SSE 8.1 mph - N/A   Overcast
10:15 PM 48.2 °F - 46.4 °F 93% 30.24 in 5.0 mi SSE 9.2 mph - 0.01 in   Overcast
10:35 PM 46.4 °F 42.4 °F 44.6 °F 93% 30.23 in 8.0 mi SE 8.1 mph - 0.01 in   Overcast
10:55 PM 46.4 °F 41.5 °F 44.6 °F 93% 30.21 in 9.0 mi SE 10.4 mph - 0.01 in   Overcast
11:15 PM 48.2 °F - 46.4 °F 93% 30.20 in 10.0 mi SSE 10.4 mph - N/A   Overcast
11:35 PM 48.2 °F - 46.4 °F 93% 30.19 in 10.0 mi SE 10.4 mph - N/A   Overcast
11:55 PM 50.0 °F - 48.2 °F 94% 30.18 in 10.0 mi SE 12.7 mph 18.4 mph 0.01 in   Overcast